Retour au catalogue

STARLINK-30473

ActifCommunicationsVLEO
NORAD 57893·PAYLOAD·🇺🇸 United States

Lancé Sep 20, 2023 depuis Cape Canaveral Space Force Station

Loading…

Prochains Passages (prochaines 24 heures)

TLE

FraisSource: CelesTrak SupGP

Époque: Sep 15, 2026, 02:46 UTC

1 57893C 23146C   26258.11576389  .00046431  00000+0  16813-2 0  2587
2 57893  43.0031 324.5230 0001770 273.1520 124.0379 15.27562130    18

Suivez STARLINK-30473 en temps réel avec AllMySat

Download on the App Store